This demonstration page uses our WeatherBlox Daily Observations layout. Learn more.

36.17497, -115.13722

Hourly Observations for November 29, 2019

Temp ( °F °C ) Dew Point ( °F °C ) Humidity (%) Winds ( mph kmh ) Pressure ( in mb ) Visibility ( mi km ) Precip ( " mm )
12:53 am 00:53 Cloudy 41 5 38 3.3 89 89 N 6 9 29.59 1002 3 4.82802 0 0
1:53 am 01:53 Partly Cloudy 41 5 38 3.3 89 89 Calm 29.6 1002 3 4.82802 0 0
2:53 am 02:53 Mostly Cloudy 40 4.4 37 2.8 89 89 Calm 29.61 1003 3 4.82802 0 0
3:49 am 03:49 Cloudy 41 5 36 2 81 81 NNW 5 7 29.58 1002 3 4.82802 0 0
3:53 am 03:53 Cloudy 41 5 36 2.2 82 82 NNW 5 7 29.59 1002 3 4.82802 0 0
4:53 am 04:53 Clear 41 5 36 2.2 82 82 NW 7 11 29.58 1002 3 4.82802 0 0
5:53 am 05:53 Clear 40 4.4 36 2.2 86 86 W 3 6 29.6 1002 10 16.0934 0 0
6:53 am 06:53 Sunny 38 3.3 36 2.2 93 93 S 3 6 29.62 1003 10 16.0934 0 0
7:53 am 07:53 Sunny 41 5 37 2.8 86 86 W 7 11 29.64 1004 10 16.0934 0 0
8:53 am 08:53 Partly Cloudy 46 7.8 32 0 58 58 SW 18 30 29.65 1004 10 16.0934 0 0
9:53 am 09:53 Sunny 48 8.9 27 -2.8 44 44 SW 21 33 29.67 1005 10 16.0934 0 0
10:53 am 10:53 Partly Cloudy 47 8.3 25 -3.9 42 42 SSW 20 31 29.7 1006 10 16.0934 0 0
11:53 am 11:53 Sunny 48 8.9 23 -5 37 37 SW 29 46 29.69 1006 10 16.0934 0 0
12:53 pm 12:53 Mostly Cloudy 47 8.3 26 -3.3 44 44 SW 17 28 29.71 1006 10 16.0934 0 0
1:53 pm 13:53 Partly Cloudy 47 8.3 28 -2.2 48 48 WSW 21 33 29.75 1007 10 16.0934 0 0
2:53 pm 14:53 Mostly Cloudy 47 8.3 27 -2.8 46 46 WSW 21 33 29.78 1009 10 16.0934 0 0
3:53 pm 15:53 Mostly Cloudy 46 7.8 27 -2.8 47 47 WSW 17 28 29.82 1010 10 16.0934 0 0
4:53 pm 16:53 Clear 46 7.8 26 -3.3 46 46 WSW 9 15 29.85 1011 10 16.0934 0 0
5:53 pm 17:53 Clear 45 7.2 24 -4.4 44 44 WSW 14 22 29.88 1012 10 16.0934 0 0
6:53 pm 18:53 Clear 44 6.7 24 -4.4 45 45 SW 13 20 29.9 1013 10 16.0934 0 0
7:53 pm 19:53 Clear 43 6.1 21 -6.1 42 42 SW 10 17 29.93 1013 10 16.0934 0 0
8:53 pm 20:53 Clear 40 4.4 24 -4.4 53 53 S 8 13 29.96 1015 10 16.0934 0 0
9:53 pm 21:53 Clear 38 3.3 26 -3.3 62 62 N 7 11 29.99 1016 10 16.0934 0 0
10:53 pm 22:53 Clear 39 3.9 28 -2.2 65 65 N 8 13 30.02 1017 10 16.0934 0 0
11:53 pm 23:53 Clear 37 2.8 27 -2.8 67 67 Calm 30.04 1017 10 16.0934 0 0

Powered by AerisWeather